Regional Weather Roundup
Issued by NWS Memphis, TN

Home | Current Version | Previous Version | Text Only | Print | Product List | Glossary On
Versions: 1 2 3 4 5 6 7 8 9 10 11 12 13 14 15 16 17 18 19 20 21 22 23 24 25 26 27 28 29 30 31 32 33 34 35 36 37 38 39 40 41 42 43 44 45 46 47 48 49 50
000
ASUS44 KMEG 310110
RWRMEG
MEMPHIS CWA HOURLY WEATHER ROUNDUP
NATIONAL WEATHER SERVICE MEMPHIS TN
800 PM CDT THU JUL 30 2015

...WEST TENNESSEE...

CITY           SKY/WX    TMP DP  RH WIND       PRES   REMARKS
MEMPHIS INTL   PTCLDY    84  64  50 N10       30.07R
NWS MEMPHIS      N/A     83 N/A N/A MISG        N/A
JACKSON        CLEAR     80  59  48 NE5       30.07R
LEXINGTON      CLEAR     75  64  69 N3        30.07R
DYERSBURG        N/A    N/A N/A N/A MISG        N/A
PARIS          CLEAR     73  63  68 N5        30.09S


...EASTERN ARKANSAS...

CITY           SKY/WX    TMP DP  RH WIND       PRES   REMARKS
JONESBORO      CLEAR     77  67  71 CALM      30.09R
WEST MEMPHIS   CLEAR     80  64  58 N6        30.06R
BATESVILLE     PTCLDY    79  63  57 CALM      30.10R
NEWPORT        CLEAR     79  68  69 NE7       30.10R
WALNUT RIDGE   CLEAR     81  63  54 N5        30.09R
BLYTHEVILLE    CLEAR     78  66  66 NE6       30.08R
SEARCY         PTCLDY    81  63  54 NE8       30.10R
STUTTGART      CLEAR     81  64  57 NE6       30.08R
PINE BLUFF     PTCLDY    81  65  58 NE5       30.07R
MONTICELLO     CLEAR     85  68  56 VRB3      30.05R


...NORTH MISSISSIPPI...

CITY           SKY/WX    TMP DP  RH WIND       PRES   REMARKS
TUPELO         CLEAR     79  63  57 NE9       30.02R
TUNICA         CLEAR     79  66  65 N7        30.06S
CLARKSDALE     CLEAR     81  68  65 N6        30.06R
CORINTH        CLEAR     79  63  57 N5        30.04S
GREENWOOD      CLEAR     84  68  58 N8        30.01R
STARKVILLE     FAIR      82  70  65 N3        30.01R
GOLDEN TRIANGL CLEAR     84  66  54 N9        29.99R


...SOUTHEAST MISSOURI...

CITY           SKY/WX    TMP DP  RH WIND       PRES   REMARKS
WEST PLAINS    PTCLDY    79  66  64 CALM      30.16S
POPLAR BLUFF   PTCLDY    78  71  79 CALM      30.08S
CAPE GIRARDEAU CLEAR     79  67  66 N3        30.08S


...NORTHWEST ALABAMA...

CITY           SKY/WX    TMP DP  RH WIND       PRES   REMARKS
MUSCLE SHOALS  CLEAR     81  62  52 N6        30.04R


...MIDDLE TENNESSEE...

CITY           SKY/WX    TMP DP  RH WIND       PRES   REMARKS
NASHVILLE      PTCLDY    80  61  52 N7        30.06R
CLARKSVILLE    CLEAR     77  62  59 N5        30.07R
COLUMBIA       CLEAR     81  64  57 N5        30.05R


...WESTERN KENTUCKY...

CITY           SKY/WX    TMP DP  RH WIND       PRES   REMARKS
PADUCAH        CLEAR     79  65  62 N6        30.07S
FORT CAMPBELL  CLEAR     78  62  56 NW3       30.07R


...CENTRAL ARKANSAS...

CITY           SKY/WX    TMP DP  RH WIND       PRES   REMARKS
LITTLE ROCK    MOCLDY    82  62  50 NE8       30.08R


SKY/WX REPORTED AS FAIR MEANS FEW OR NO CLOUDS BELOW
12 THOUSAND FEET.



USA.gov is the U.S. government's official web portal to all federal, state and local government web resources and services.